FREGAT DEB, 45816

Orbit data source: Space-Track

FREGAT DEB, 45816 is space debris in LEO originally from a launch on Mon, 18 Jul 2011 UTC launched from the Tyuratam Missile And Space Complex (TTMTR). Debris objects in space refer to the collection of defunct objects orbiting the Earth. Examples of debris include non-operational satellites, rocket bodies, and fragments generated from explosions, collisions, or faulty payload assembly.

Loading next visibility...
Identifier
45816, 2011-037BA
Orbit
LEO
Country
Flag of CISCIS
Related business
Manufacturer
Lavochkin
Mission
Spacecraft
Bus & Motor
Unknown
Mass
Unknown
Launch date (UTC)
2011-07-18 (15 years ago)
Launch vehicle
Unknown
Launch site
Tyuratam Missile And Space Complex (TTMTR)
Object type
Payload
Rocket body
Debris
Shape & HBR
Unknown shape, 0.1 m
Radar Cross Section
Medium (>0.1 m² and <1 m²)

Expand to show TLE details & history
Last TLE update: 16 hours ago

TLE from 16 hours ago
0 FREGAT DEB
1 45816U 11037BA  26255.04434509  .00003011  00000-0  65005-3 0  9999
2 45816  51.4817 139.3160 1582118 244.2070  98.7398 11.91393049262611
Epoch: 2026-09-12T01:03Z
TLE epoch observation values (Epoch: 2026-09-12T01:03:51.415Z)
Latitude
0.00003°
Longitude
132.29279°
Altitude
2,103.068 km
Speed
6.694 km/s
True Right ascension
09h 17m 15s
True Declination
0° 00' 00"
Sunlit
Object was in daylight at epoch
Visualization orbit readout
Latitude
Unknown
Longitude
Unknown
Altitude
Unknown
Speed
Unknown
Apparent Right ascension
Unknown
Apparent Declination
Unknown
Sunlit
N/A
Visualization observer readout
Local Sidereal Time
09:12:38
Azimuth
Unknown
Elevation
Unknown
Doppler factor
Unknown
Orbital elements
Apogee altitude
3,001.33 km
Perigee altitude
438.858 km
Semi-major axis
8,098.231 km
Eccentricity
0.15821
Inclination
51.4817°
RAAN
139.316°
Arg. of periapsis
244.207°
True anomaly
115.8778°
Mean anomaly
98.7398°
Eccentric anomaly
107.39032°
Mean motion
2.97823 °/min
Orbital period
120.88 mins
BSTAR
0.00065005
Loading maneuver chart data...
Computing Atmospheric mass density...
Loading historical data...
Loading historical data...
Loading historical data...
Loading historical data...
Loading historical data...
Loading historical data...
Loading historical data...

Documentation

Showing up to 5 results
|